TimeEDT,TemperatureF,Dew PointF,Humidity,Sea Level PressureIn,VisibilityMPH,Wind Direction,Wind SpeedMPH,Gust SpeedMPH,PrecipitationIn,Events,Conditions,WindDirDegrees,DateUTC
12:54 AM,62.1,54.0,75,29.91,10.0,North,5.8,-,N/A,,Clear,360,2013-09-23 04:54:00
1:54 AM,61.0,55.0,81,29.93,10.0,North,4.6,-,N/A,,Clear,350,2013-09-23 05:54:00
2:54 AM,61.0,53.1,75,29.93,10.0,NNW,6.9,-,N/A,,Clear,340,2013-09-23 06:54:00
3:54 AM,59.0,52.0,78,29.94,10.0,North,5.8,-,N/A,,Clear,360,2013-09-23 07:54:00
4:54 AM,57.9,51.1,78,29.94,10.0,North,6.9,-,N/A,,Clear,360,2013-09-23 08:54:00
5:54 AM,57.9,51.1,78,29.96,10.0,North,5.8,-,N/A,,Clear,360,2013-09-23 09:54:00
6:54 AM,57.0,50.0,77,29.99,10.0,North,5.8,-,N/A,,Clear,360,2013-09-23 10:54:00
7:54 AM,57.0,50.0,77,30.02,10.0,North,5.8,-,N/A,,Clear,360,2013-09-23 11:54:00
8:54 AM,63.0,51.1,65,30.04,10.0,North,8.1,-,N/A,,Clear,10,2013-09-23 12:54:00
9:54 AM,66.0,50.0,56,30.06,10.0,NE,10.4,16.1,N/A,,Partly Cloudy,40,2013-09-23 13:54:00
10:54 AM,64.0,46.9,54,30.07,10.0,NNE,11.5,-,N/A,,Mostly Cloudy,20,2013-09-23 14:54:00
11:54 AM,64.9,48.0,54,30.07,10.0,NNE,6.9,-,N/A,,Overcast,30,2013-09-23 15:54:00
12:54 PM,66.0,48.0,52,30.06,10.0,NNE,10.4,17.3,N/A,,Overcast,20,2013-09-23 16:54:00
1:54 PM,69.1,46.9,45,30.04,10.0,NNW,10.4,-,N/A,,Mostly Cloudy,340,2013-09-23 17:54:00
2:54 PM,71.1,48.0,44,30.03,10.0,NW,8.1,16.1,N/A,,Mostly Cloudy,320,2013-09-23 18:54:00
3:54 PM,70.0,46.9,44,30.03,10.0,North,6.9,-,N/A,,Mostly Cloudy,360,2013-09-23 19:54:00
4:54 PM,69.1,48.0,47,30.03,10.0,North,5.8,-,N/A,,Clear,10,2013-09-23 20:54:00
6:54 PM,63.0,51.1,65,30.05,10.0,Calm,Calm,-,N/A,,Clear,0,2013-09-23 22:54:00
7:54 PM,57.9,51.1,78,30.06,10.0,North,5.8,-,N/A,,Clear,10,2013-09-23 23:54:00
8:54 PM,57.9,50.0,75,30.06,10.0,North,4.6,-,N/A,,Clear,10,2013-09-24 00:54:00
9:54 PM,55.0,48.9,80,30.08,10.0,Calm,Calm,-,N/A,,Clear,0,2013-09-24 01:54:00
10:54 PM,52.0,48.0,86,30.09,10.0,Calm,Calm,-,N/A,,Clear,0,2013-09-24 02:54:00
11:54 PM,51.1,48.0,89,30.08,8.0,Calm,Calm,-,N/A,,Clear,0,2013-09-24 03:54:00